{"data":{"norad_id":57886,"intl_designator":"2023-145A","name":"YAOGAN-39 02A","alt_names":[],"object_type":"PAYLOAD","status":"ACTIVE","operator":null,"country":"PRC","launch_date":"2023-09-17","launch_site_code":"XICLF","launch_vehicle":null,"mission":null,"orbit_class":"UNKNOWN","rcs_meters":null,"size_class":null,"mass_kg":null,"dimensions":null,"purposes":[],"wikipedia_slug":null,"has_3d_model":false,"image_url":null,"decayed_at":null,"tle_current":{"epoch":"2026-09-22T11:27:43.792416Z","epoch_age_seconds":138027,"freshness":"FRESH","line1":"1 57886U 23145A   26265.47759019  .00005828  00000+0  24411-3 0  9999","line2":"2 57886  35.0035 308.6280 0002316 143.4498 216.6375 15.22887398168013","mean_motion":15.22887398,"eccentricity":0.0002316,"inclination_deg":35.0035,"raan_deg":308.628,"arg_perigee_deg":143.4498,"mean_anomaly_deg":216.6375,"bstar":0.00024411,"rev_number":16801,"period_min":94.557220835312,"perigee_km":495.54419021513,"apogee_km":498.72881690198,"semimajor_km":6875.2735035586,"source":"CELESTRAK","updated_at":"2026-09-23T09:00:18.433768Z"}}}